TimeMST,TemperatureF,Dew PointF,Humidity,Sea Level PressureIn,VisibilityMPH,Wind Direction,Wind SpeedMPH,Gust SpeedMPH,PrecipitationIn,Events,Conditions,WindDirDegrees,DateUTC
12:53 AM,45.0,23.0,42,29.87,10.0,WSW,10.4,-,N/A,,Clear,250,2012-12-05 07:53:00
1:53 AM,44.1,24.1,45,29.86,10.0,WSW,6.9,-,N/A,,Clear,250,2012-12-05 08:53:00
2:53 AM,41.0,24.1,51,29.85,10.0,SW,5.8,-,N/A,,Clear,220,2012-12-05 09:53:00
3:53 AM,44.1,26.1,49,29.80,10.0,SW,8.1,-,N/A,,Clear,230,2012-12-05 10:53:00
4:53 AM,39.0,25.0,57,29.80,10.0,Calm,Calm,-,N/A,,Clear,0,2012-12-05 11:53:00
5:53 AM,44.1,27.0,51,29.78,10.0,SW,12.7,-,N/A,,Clear,220,2012-12-05 12:53:00
7:53 AM,43.0,28.0,56,29.76,10.0,SSW,6.9,-,N/A,,Partly Cloudy,210,2012-12-05 14:53:00
8:53 AM,37.9,27.0,65,29.78,10.0,Calm,Calm,-,N/A,,Partly Cloudy,0,2012-12-05 15:53:00
9:53 AM,45.0,28.9,53,29.76,10.0,SW,10.4,-,N/A,,Scattered Clouds,220,2012-12-05 16:53:00
10:53 AM,52.0,30.9,45,29.73,10.0,SW,10.4,-,N/A,,Scattered Clouds,230,2012-12-05 17:53:00
11:53 AM,55.9,33.1,42,29.69,10.0,WSW,12.7,-,N/A,,Mostly Cloudy,250,2012-12-05 18:53:00
12:53 PM,63.0,32.0,31,29.66,10.0,SW,12.7,18.4,N/A,,Mostly Cloudy,230,2012-12-05 19:53:00
1:53 PM,60.1,30.9,33,29.68,10.0,WNW,16.1,21.9,N/A,,Scattered Clouds,290,2012-12-05 20:53:00
2:53 PM,60.1,28.9,31,29.69,10.0,WNW,19.6,29.9,N/A,,Scattered Clouds,290,2012-12-05 21:53:00
3:33 PM,53.6,35.6,51,29.73,10.0,NNW,17.3,26.5,N/A,,Scattered Clouds,330,2012-12-05 22:33:00
3:53 PM,52.0,34.0,50,29.74,10.0,NNW,20.7,27.6,N/A,,Scattered Clouds,330,2012-12-05 22:53:00
4:53 PM,51.1,32.0,48,29.80,10.0,NNW,18.4,-,N/A,,Mostly Cloudy,330,2012-12-05 23:53:00
5:53 PM,50.0,28.9,44,29.81,10.0,NNW,23.0,32.2,N/A,,Scattered Clouds,330,2012-12-06 00:53:00
6:53 PM,48.0,24.1,39,29.85,10.0,NNW,23.0,-,N/A,,Mostly Cloudy,340,2012-12-06 01:53:00
7:53 PM,45.0,18.0,34,29.88,10.0,NNW,20.7,-,N/A,,Scattered Clouds,340,2012-12-06 02:53:00
8:53 PM,43.0,15.1,32,29.94,10.0,North,16.1,-,N/A,,Mostly Cloudy,350,2012-12-06 03:53:00
9:53 PM,43.0,12.9,30,29.99,10.0,Variable,4.6,-,N/A,,Mostly Cloudy,0,2012-12-06 04:53:00
10:36 PM,41.0,15.8,36,29.99,10.0,NE,10.4,-,0.00,,Small Hail,50,2012-12-06 05:36:00
10:53 PM,39.9,16.0,38,30.01,10.0,North,6.9,-,0.00,,Light Hail,360,2012-12-06 05:53:00
11:07 PM,39.2,17.6,42,30.00,10.0,East,10.4,-,0.00,,Unknown,90,2012-12-06 06:07:00
11:53 PM,39.0,21.9,50,30.03,9.0,ESE,6.9,-,0.00,,Unknown,120,2012-12-06 06:53:00